STARLINK-11123, 59948

Orbit data source: Space-Track

STARLINK-11123, 59948 is a payload satellite owned by SpaceX/Seattle (US) in LEO that was launched on Wed, 05 Jun 2024 UTC via an FALCON 9 launch vehicle from the Air Force Eastern Test Range (AFETR). Payload-class satellites include a variety of spacecraft equipped with specific instruments for various scientific and technological missions. These include communications satellites like Starlink; space stations such as the ISS; scientific satellites like the Hubble; Earth observation satellites from companies like Planet Labs, Umbra, and HawkEye 360; GPS; miniature CubeSats for education and research; and military/defense satellites.

Loading next visibility...
Identifier
59948, 2024-107D
Orbit
LEO
Country
Flag of USUS
Related business
Manufacturer
SpaceX/Seattle
Mission
Operational Commercial Communications
Bus & Motor
STARLINK V2MD, Unknown motor
Mass
960 kg wet, ~910 kg dry
Launch date (UTC)
2024-06-05 (2 years ago)
Launch vehicle
FALCON 9
Launch site
Air Force Eastern Test Range (AFETR)
Object type
Payload
Rocket body
Debris
Shape & HBR
Box + 2 Pan, 18.1 m
Radar Cross Section
36.964 m², Large (>1 m²)

Expand to show TLE details & history
Last TLE update: 3 days ago

TLE from 3 days ago
0 STARLINK-11123
1 59948U 24107D   26170.56303654  .00000828  00000-0  11693-4 0  9999
2 59948  53.1593 109.2652 0001146  80.0668 280.0480 15.69717709118204
Epoch: 2026-06-19T13:30Z
TLE epoch observation values (Epoch: 2026-06-19T13:30:46.357Z)
Latitude
0.00006°
Longitude
-1.21813°
Altitude
360.485 km
Speed
7.694 km/s
True Right ascension
07h 17m 03s
True Declination
0° 00' 00"
Sunlit
Object was in daylight at epoch
Visualization orbit readout
Latitude
Unknown
Longitude
Unknown
Altitude
Unknown
Speed
Unknown
Apparent Right ascension
Unknown
Apparent Declination
Unknown
Sunlit
N/A
Visualization observer readout
Local Sidereal Time
00:50:41
Azimuth
Unknown
Elevation
Unknown
Doppler factor
Unknown
Orbital elements
Apogee altitude
360.738 km
Perigee altitude
359.193 km
Semi-major axis
6,738.102 km
Eccentricity
0.00011
Inclination
53.1593°
RAAN
109.2652°
Arg. of periapsis
80.0668°
True anomaly
280.03507°
Mean anomaly
280.048°
Eccentric anomaly
280.04153°
Mean motion
3.92407 °/min
Orbital period
91.74 mins
BSTAR
0.000011693
Loading maneuver chart data...
Computing Atmospheric mass density...
Loading historical data...
Loading historical data...
Loading historical data...
Loading historical data...
Loading historical data...
Loading historical data...
Loading historical data...

Documentation

Showing up to 5 results
|